DW9572 Weather Reports


Display with metric or nautical units.
time (UTC)temp
F
wind
direction
speed
MPH
gust
MPH
rain 1hr
in
rain 24hr
in
rain mn
in
humidity
%
barometer
mb
20260901141538 64 148 1.0 2.0 0.00 0.00 0.00 57 1005.1
20260901140017 63 61 0.0 2.0 0.00 0.00 0.00 55 1005.2
20260901134528 63 284 3.0 6.0 0.00 0.00 0.00 54 1005.1
20260901133056 63 188 1.0 5.0 0.00 0.00 0.00 53 1005.1
20260901131553 62 177 3.0 8.0 0.00 0.00 0.00 56 1004.9
20260901130035 63 6 1.0 4.0 0.00 0.00 0.00 60 1005.1
20260901124540 63 44 0.0 4.0 0.00 0.00 0.00 57 1004.9
20260901123017 63 69 0.0 2.0 0.00 0.00 0.00 56 1005.0
20260901121516 63 16 0.0 5.0 0.00 0.00 0.00 56 1004.8
20260901120104 62 67 2.0 3.0 0.00 0.00 0.00 59 1005.0
20260901114600 65 151 3.0 7.0 0.00 0.00 0.00 52 1005.1
20260901113105 65 270 2.0 3.0 0.00 0.00 0.00 51 1004.8
20260901111541 65 264 0.0 5.0 0.00 0.00 0.00 50 1004.7
20260901110022 66 279 2.0 7.0 0.00 0.00 0.00 49 1004.7
20260901104522 66 305 4.0 7.0 0.00 0.00 0.00 50 1004.7
20260901103009 66 302 3.0 7.0 0.00 0.00 0.00 49 1004.9
20260901101508 66 294 1.0 3.0 0.00 0.00 0.00 48 1005.0
20260901100008 65 270 0.0 3.0 0.00 0.00 0.00 50 1004.9
20260901094507 64 336 0.0 2.0 0.00 0.00 0.00 51 1004.9
20260901093016 66 159 0.0 3.0 0.00 0.00 0.00 48 1005.0
20260901091506 67 286 3.0 5.0 0.00 0.00 0.00 46 1004.9
20260901090008 67 309 1.0 4.0 0.00 0.00 0.00 45 1005.0
20260901084517 69 278 5.0 8.0 0.00 0.00 0.00 43 1004.8
20260901083047 69 276 4.0 6.0 0.00 0.00 0.00 42 1004.9
20260901081551 70 273 4.0 10.0 0.00 0.00 0.00 42 1005.0
20260901080037 71 283 7.0 12.0 0.00 0.00 0.00 38 1005.2
20260901074528 72 264 7.0 11.0 0.00 0.00 0.00 35 1005.2
20260901073010 73 278 3.0 8.0 0.00 0.00 0.00 35 1005.1
20260901071510 72 281 5.0 10.0 0.00 0.00 0.00 35 1005.2
20260901070100 72 276 8.0 12.0 0.00 0.00 0.00 36 1005.2
20260901064550 72 294 6.0 9.0 0.00 0.00 0.00 36 1005.4
20260901063032 72 266 7.0 10.0 0.00 0.00 0.00 35 1005.4
20260901061531 74 186 2.0 6.0 0.00 0.00 0.00 33 1005.4
20260901060013 74 302 5.0 9.0 0.00 0.00 0.00 33 1005.5
20260901054515 74 291 5.0 9.0 0.00 0.00 0.00 33 1005.6
20260901053128 75 296 6.0 11.0 0.00 0.00 0.00 32 1005.6
20260901051556 77 338 7.0 15.0 0.00 0.00 0.00 29 1005.7
20260901050054 79 345 11.0 17.0 0.00 0.00 0.00 28 1005.6
20260901044554 79 335 15.0 19.0 0.00 0.00 0.00 28 1005.4
20260901043040 79 339 16.0 21.0 0.00 0.00 0.00 28 1005.6
20260901041519 78 347 16.0 24.0 0.00 0.00 0.00 29 1005.8
20260901040017 78 356 13.0 16.0 0.00 0.00 0.00 29 1005.6
20260901034606 78 340 14.0 19.0 0.00 0.00 0.00 29 1005.6
20260901033058 78 346 9.0 16.0 0.00 0.00 0.00 29 1005.8
20260901031547 77 336 11.0 14.0 0.00 0.00 0.00 29 1005.6
20260901030041 79 343 13.0 17.0 0.00 0.00 0.00 28 1005.7
20260901024525 79 345 12.0 15.0 0.00 0.00 0.00 28 1005.7
20260901023021 78 340 11.0 15.0 0.00 0.00 0.00 29 1005.6
20260901021502 80 350 10.0 13.0 0.00 0.00 0.00 27 1005.8
20260901020114 82 354 10.0 14.0 0.00 0.00 0.00 25 1005.9
20260901014544 84 356 10.0 14.0 0.00 0.00 0.00 24 1006.0
20260901013044 85 27 9.0 14.0 0.00 0.00 0.00 23 1006.1
20260901011533 85 18 6.0 13.0 0.00 0.00 0.00 23 1006.2
20260901010021 85 30 10.0 15.0 0.00 0.00 0.00 23 1006.4
20260901004501 86 43 11.0 15.0 0.00 0.00 0.00 23 1006.6
20260901003123 86 8 9.0 13.0 0.00 0.00 0.00 22 1006.7
20260901001555 86 21 9.0 14.0 0.00 0.00 0.00 23 1007.0
20260901000044 86 82 6.0 14.0 0.00 0.00 0.00 22 1007.3
20260831234517 85 8 7.0 14.0 0.00 0.00 0.00 23 1007.4
20260831233032 85 60 12.0 17.0 0.00 0.00 0.00 23 1007.7
20260831231602 85 69 7.0 14.0 0.00 0.00 0.00 23 1008.0
20260831230053 85 12 10.0 15.0 0.00 0.00 0.00 24 1008.2
20260831224534 84 55 7.0 15.0 0.00 0.00 0.00 24 1008.5
20260831223034 83 58 9.0 16.0 0.00 0.00 0.00 25 1008.6
20260831221512 83 33 8.0 17.0 0.00 0.00 0.00 25 1008.9
20260831220009 83 37 12.0 15.0 0.00 0.00 0.00 24 1009.2
20260831214550 83 92 11.0 15.0 0.00 0.00 0.00 24 1009.6
20260831213045 81 90 7.0 16.0 0.00 0.00 0.00 25 1009.9
20260831211526 82 29 7.0 17.0 0.00 0.00 0.00 26 1010.0
20260831210023 80 87 14.0 17.0 0.00 0.00 0.00 26 1010.2
20260831204505 80 21 8.0 13.0 0.00 0.00 0.00 27 1010.5
20260831203059 79 87 14.0 18.0 0.00 0.00 0.00 28 1010.8
20260831201547 79 96 13.0 20.0 0.00 0.00 0.00 28 1011.0
20260831200042 79 101 14.0 20.0 0.00 0.00 0.00 29 1011.3
20260831194532 78 104 7.0 14.0 0.00 0.00 0.00 30 1011.5
20260831193012 77 95 8.0 17.0 0.00 0.00 0.00 31 1011.7
20260831191553 77 1 8.0 16.0 0.00 0.00 0.00 31 1012.1
20260831190058 76 51 8.0 17.0 0.00 0.00 0.00 32 1012.4
20260831184542 76 90 7.0 17.0 0.00 0.00 0.00 33 1012.6
20260831183033 75 89 11.0 15.0 0.00 0.00 0.00 32 1012.9
20260831181515 74 52 11.0 16.0 0.00 0.00 0.00 33 1013.0
20260831180005 73 45 11.0 16.0 0.00 0.00 0.00 36 1013.2
20260831174602 73 86 11.0 17.0 0.00 0.00 0.00 37 1013.2
20260831173059 73 53 11.0 14.0 0.00 0.00 0.00 40 1013.4
20260831171545 71 39 9.0 15.0 0.00 0.00 0.00 41 1013.7
20260831170042 70 69 12.0 14.0 0.00 0.00 0.00 44 1013.8
20260831164539 68 32 8.0 11.0 0.00 0.00 0.00 46 1014.0
20260831163037 65 85 6.0 9.0 0.00 0.00 0.00 50 1014.1
20260831161529 64 91 5.0 8.0 0.00 0.00 0.00 51 1014.3
20260831160030 63 98 3.0 5.0 0.00 0.00 0.00 53 1014.5
20260831154513 61 89 3.0 6.0 0.00 0.00 0.00 55 1014.6
20260831153003 60 93 3.0 6.0 0.00 0.00 0.00 55 1014.7
20260831151556 61 112 0.0 3.0 0.00 0.00 0.00 58 1014.7
20260831150048 59 190 1.0 2.0 0.00 0.00 0.00 61 1014.6
20260831144532 59 222 0.0 1.0 0.00 0.00 0.00 61 1014.4
20260831143033 59 233 2.0 3.0 0.00 0.00 0.00 62 1014.4